TimeCDT,TemperatureF,Dew PointF,Humidity,Sea Level PressureIn,VisibilityMPH,Wind Direction,Wind SpeedMPH,Gust SpeedMPH,PrecipitationIn,Events,Conditions,WindDirDegrees,DateUTC
12:53 AM,50.0,46.0,86,30.14,10.0,Calm,Calm,-,N/A,,Clear,0,2012-10-30 05:53:00
2:53 AM,51.1,48.9,92,30.12,10.0,Calm,Calm,-,N/A,,Clear,0,2012-10-30 07:53:00
3:53 AM,54.0,50.0,86,30.10,10.0,Calm,Calm,-,N/A,,Clear,0,2012-10-30 08:53:00
4:53 AM,53.1,52.0,96,30.09,10.0,Calm,Calm,-,N/A,,Clear,0,2012-10-30 09:53:00
5:53 AM,55.9,54.0,93,30.08,10.0,Calm,Calm,-,N/A,,Clear,0,2012-10-30 10:53:00
7:53 AM,55.0,53.1,93,30.09,10.0,Calm,Calm,-,N/A,,Clear,0,2012-10-30 12:53:00
8:53 AM,62.1,57.0,84,30.10,10.0,ENE,3.5,-,N/A,,Clear,70,2012-10-30 13:53:00
9:53 AM,69.1,55.9,63,30.11,10.0,ENE,4.6,-,N/A,,Clear,70,2012-10-30 14:53:00
10:53 AM,73.0,57.0,57,30.11,10.0,East,3.5,-,N/A,,Clear,100,2012-10-30 15:53:00
11:53 AM,77.0,57.0,50,30.10,10.0,SE,6.9,-,N/A,,Clear,140,2012-10-30 16:53:00
12:39 PM,77.0,55.4,47,30.07,2.0,SSE,8.1,-,N/A,,Haze,160,2012-10-30 17:39:00
12:53 PM,79.0,55.9,45,30.07,10.0,SSE,10.4,-,N/A,,Clear,150,2012-10-30 17:53:00
1:53 PM,78.1,55.9,46,30.04,10.0,SSE,10.4,-,N/A,,Clear,150,2012-10-30 18:53:00
2:53 PM,78.1,57.0,48,30.02,10.0,SE,11.5,-,N/A,,Clear,140,2012-10-30 19:53:00
3:53 PM,78.1,57.9,50,30.01,10.0,SE,10.4,-,N/A,,Clear,130,2012-10-30 20:53:00
4:53 PM,75.9,57.9,54,29.98,10.0,SSE,10.4,-,N/A,,Clear,160,2012-10-30 21:53:00
5:53 PM,75.0,59.0,57,29.99,10.0,SE,8.1,-,N/A,,Clear,140,2012-10-30 22:53:00
7:53 PM,71.1,61.0,70,30.00,10.0,SSE,6.9,-,N/A,,Clear,150,2012-10-31 00:53:00
8:53 PM,71.1,62.1,73,30.01,10.0,SSE,6.9,-,N/A,,Clear,150,2012-10-31 01:53:00
9:53 PM,71.1,62.1,73,30.02,10.0,SSE,6.9,-,N/A,,Clear,150,2012-10-31 02:53:00
10:53 PM,72.0,62.1,71,30.03,10.0,SSE,6.9,-,N/A,,Clear,150,2012-10-31 03:53:00
11:53 PM,71.1,63.0,75,30.02,10.0,SSE,4.6,-,N/A,,Clear,160,2012-10-31 04:53:00